Find Starlink 30545

NORAD ID: 58000 Int'l Des: 2023-153 Owner: SPXS Country: US Constellation: starlink operational
LEOCIRCULAR

Live Position

Loading 3D Globe...

About Starlink 30545

Description loading...

Upcoming Passes

Passes for default location (London). Set your location on the main map for personalized predictions.

Altitude History

Loading altitude history...

Two-Line Element Set

1 58000U 23153K 26123.04241909 .00000108 00000-0 13436-4 0 9990
2 58000 43.0045 119.6890 0001119 265.2365 94.8359 15.27574687143217
Epoch: May 3, 2026 • Age: 17 hours

Current Status

Altitude 492.0 km
Velocity 7.62 km/s
Sub-Earth Point -33.91°S, 62.4°W
Launch Date Oct 5, 2023
Age 2.5 years
Type internet

Technical Details

Classification Payload
Mass 730.00 kg
Dry Mass 700.00 kg
Total Mass 730.00 kg
Length 0.30 m
Diameter 4.10 m
Span 29.00 m
Shape Box + pan
Manufacturer SPXS
Bus Type Starlink V2M
Phase Status In Orbit
Owner/State SPXS/US

Most Searched